Location: A�t Bou Chrif
(32.7193°N, 5.2385°W)
Time: 00:20:04
(UTC+00:00)

H-2A R/B - Pass Details

Date: 08 August 2020
Orbit: 733 x 837 km, 98.2° (Epoch: 18 September)

Event Time Altitude Azimuth Distance (km) Brightness Sun altitude
Rises 20:26:33 0° 191° (S) 3,309 5.1 -14.9°
Reaches altitude 10° 20:29:09 10° 202° (SSW) 2,366 4.4 -15.4°
Maximum altitude 20:33:43 30° 263° (W) 1,371 3.8 -16.2°
Drops below altitude 10° 20:38:12 10° 324° (NW) 2,318 5.6 -17.0°
Sets 20:40:45 0° 335° (NNW) 3,232 6.2 -17.5°
